Location: El Bakhil
(32.7726°N, 5.5387°W)
Time: 21:28:44
(UTC+00:00)

Cosmos 1500 - Visible Passes

Search period start: 02 December 2023 00:00
Search period end: 12 December 2023 00:00
Orbit: 461 x 476 km, 82.5° (Epoch: 02 December)

Date Brightness Start Highest point End Pass type
(mag) Time Alt. Az. Time Alt. Az. Time Alt. Az.
02 Dec 5.3 18:34:15 10° NNW 18:37:14 26° W 18:40:14 10° SSW visible
03 Dec 3.0 06:36:11 10° S 06:39:44 86° W 06:43:18 10° N visible
03 Dec 3.7 18:04:18 10° NNW 18:07:46 57° W 18:11:13 10° S visible
04 Dec 4.4 06:06:50 10° SSE 06:10:12 42° E 06:13:34 10° NNE visible
05 Dec 5.8 05:38:01 10° SE 05:40:42 20° E 05:43:24 10° NE visible
05 Dec 6.6 18:42:19 10° WNW 18:42:53 10° W 18:43:27 10° W visible
06 Dec 6.6 05:10:43 10° E 05:11:15 10° E 05:11:46 10° ENE visible
06 Dec 5.9 18:10:43 10° NW 18:13:25 21° W 18:16:06 10° SW visible
07 Dec 2.9 06:12:24 10° SSW 06:15:53 64° W 06:19:25 10° N visible
07 Dec 4.4 17:40:29 10° NNW 17:43:51 42° W 17:47:12 10° SSW visible
08 Dec 3.6 05:42:45 10° S 05:46:14 56° E 05:49:43 10° NNE visible
09 Dec 5.2 05:13:37 10° SSE 05:16:36 26° E 05:19:35 10° NNE visible
10 Dec 6.2 04:45:17 10° ESE 04:47:00 13° E 04:48:44 10° ENE visible
10 Dec 4.1 06:18:36 10° SW 06:21:27 23° WNW 06:24:20 10° NNW visible
10 Dec 6.1 17:46:51 10° NW 17:49:08 16° W 17:51:25 10° SW visible
11 Dec 3.1 05:48:12 10° SSW 05:51:37 47° W 05:55:03 10° N visible
